DW4923 Huntingtown MD US current weather conditions

sailwx.info

Wind from 304

Air temperature 6.7° C
Dewpoint -0.3° C

Last reported at 2020-Jan-28 22:09 UTC.
Time now 2020-Jan-28 22:58 UTC

Location: N 38°39' W 076°37'.
View on Google Maps.

See reports from other nearby stations

  
Tides and Currents Weather Stations Pressure Air Temp Water Temp Dewpoint Dewpoint Depression Visibility Wind Speed Wind Dir Waves Ship Positions
date/time (UTC)wind fromknots sea level pressurealtimeterstation pressurevisibilityair tempwater tempwave heightnotes
2020-Jan-28 22:09 304 6.7
2020-Jan-28 21:59 333 2 gusting 2 7.2
2020-Jan-28 21:49 291 7.2
2020-Jan-28 21:39 324 1 gusting 9 7.2
2020-Jan-28 21:29 300 7.2
2020-Jan-28 21:19 323 2 gusting 11 7.2
2020-Jan-28 21:09 318 1 gusting 10 7.2
2020-Jan-28 20:59 320 4 gusting 6 7.2
2020-Jan-28 20:49 008 1 gusting 6 7.2
2020-Jan-28 20:39 058 2 gusting 11 7.2
2020-Jan-28 20:29 305 2 gusting 10 7.2
2020-Jan-28 20:19 001 6 gusting 8 7.2
2020-Jan-28 20:09 215 0 gusting 5 7.2
2020-Jan-28 19:59 350 1 gusting 9 7.2
2020-Jan-28 19:49 348 7.2
2020-Jan-28 19:39 316 0 gusting 5 6.7
2020-Jan-28 19:29 314 0 gusting 7 7.2
2020-Jan-28 19:19 304 2 gusting 9 7.2
2020-Jan-28 19:09 327 2 gusting 7 7.2
2020-Jan-28 18:59 291 2 gusting 12 7.2
2020-Jan-28 18:49 327 3 gusting 11 7.2
2020-Jan-28 18:39 309 4 gusting 10 7.2
2020-Jan-28 18:29 295 0 gusting 10 7.2
2020-Jan-28 18:19 006 4 gusting 9 6.7
2020-Jan-28 18:09 319 5 gusting 12 6.7
2020-Jan-28 17:59 232 3 gusting 8 6.7
2020-Jan-28 17:49 036 5 gusting 6 7.2
2020-Jan-28 17:39 001 6 gusting 8 7.2
2020-Jan-28 17:29 025 4 gusting 12 7.2
2020-Jan-28 17:19 307 2 gusting 7 6.7
2020-Jan-28 17:09 299 2 gusting 13 6.7
2020-Jan-28 16:59 343 3 gusting 11 6.7
2020-Jan-28 16:49 033 6 gusting 7 6.7
2020-Jan-28 16:39 322 3 gusting 11 6.7
2020-Jan-28 16:29 228 1 gusting 11 6.7
2020-Jan-28 16:19 353 11 gusting 14 6.7
2020-Jan-28 16:09 035 3 gusting 7 6.7
2020-Jan-28 15:59 306 0 gusting 9 6.7
2020-Jan-28 15:49 328 3 gusting 12 6.7
2020-Jan-28 15:39 327 5 gusting 8 6.7
2020-Jan-28 15:29 066 2 gusting 9 6.1
2020-Jan-28 15:19 315 6 gusting 11 6.1
2020-Jan-28 15:09 285 3 gusting 12 6.1
2020-Jan-28 14:59 314 5 gusting 11 6.1
2020-Jan-28 14:49 309 3 gusting 13 6.1
2020-Jan-28 14:39 354 5 gusting 14 6.1
2020-Jan-28 14:29 285 3 gusting 8 6.1
2020-Jan-28 14:19 298 4 gusting 10 5.6
2020-Jan-28 14:09 336 6 gusting 10 5.6
2020-Jan-28 13:59 294 2 gusting 5 5.0
2020-Jan-28 13:49 311 0 gusting 5 5.0
2020-Jan-28 13:39 285 0 gusting 5 4.4
2020-Jan-28 13:29 052 0 gusting 5 4.4
2020-Jan-28 13:19 205 4.4
2020-Jan-28 13:09 358 0 gusting 8 4.4
2020-Jan-28 12:59 001 2 gusting 6 4.4
2020-Jan-28 12:49 252 1 gusting 6 4.4
2020-Jan-28 12:39 302 2 gusting 5 4.4
2020-Jan-28 12:29 302 3 gusting 6 4.4
2020-Jan-28 12:19 239 0 gusting 4 4.4
2020-Jan-28 12:09 335 2 gusting 9 4.4
2020-Jan-28 11:59 004 2 gusting 5 4.4
2020-Jan-28 11:49 023 1 gusting 6 4.4
2020-Jan-28 11:39 309 1 gusting 6 4.4
2020-Jan-28 11:29 309 0 gusting 6 4.4
2020-Jan-28 11:19 348 4.4
2020-Jan-28 11:09 340 2 gusting 7 4.4
2020-Jan-28 10:59 340 4.4
2020-Jan-28 10:49 241 0 gusting 7 4.4
2020-Jan-28 10:39 281 1 gusting 6 4.4
2020-Jan-28 10:29 165 0 gusting 6 4.4
2020-Jan-28 10:19 027 3 gusting 7 4.4
2020-Jan-28 10:09 023 0 gusting 6 4.4
2020-Jan-28 09:59 277 0 gusting 4 4.4
2020-Jan-28 09:49 004 0 gusting 5 4.4
2020-Jan-28 09:39 359 3 gusting 6 4.4
2020-Jan-28 09:29 305 4.4
2020-Jan-28 09:19 004 6 gusting 6 4.4
2020-Jan-28 09:09 316 0 gusting 6 4.4
2020-Jan-28 08:59 355 0 gusting 5 4.4
2020-Jan-28 08:49 008 0 gusting 6 4.4
2020-Jan-28 08:39 013 3 gusting 4 4.4
2020-Jan-28 08:29 293 0 gusting 6 5.0
2020-Jan-28 08:19 333 2 gusting 5 5.0
2020-Jan-28 08:09 022 0 gusting 5 5.0
2020-Jan-28 07:59 316 1 gusting 4 4.4
2020-Jan-28 07:49 330 1 gusting 5 5.0
2020-Jan-28 07:39 309 3 gusting 6 5.0
2020-Jan-28 07:29 339 4 gusting 5 5.0
2020-Jan-28 07:19 345 3 gusting 5 5.0
2020-Jan-28 07:09 264 5.0
2020-Jan-28 06:59 319 5.0
2020-Jan-28 06:49 302 0 gusting 9 5.0
2020-Jan-28 06:39 342 2 gusting 6 4.4
2020-Jan-28 06:29 295 1 gusting 6 4.4
2020-Jan-28 06:19 267 4.4
2020-Jan-28 06:09 333 0 gusting 5 3.9
2020-Jan-28 05:59 337 3.3
2020-Jan-28 05:49 320 3.3
2020-Jan-28 05:39 298 3.3
2020-Jan-28 05:29 288 3.3
2020-Jan-28 05:19 026 3.3
2020-Jan-28 05:09 232 3.3
2020-Jan-28 04:59 352 3.3
2020-Jan-28 04:49 306 2.8
2020-Jan-28 04:39 309 2.2
2020-Jan-28 04:29 262 1.7
2020-Jan-28 04:19 006 1.7
2020-Jan-28 04:09 006 2.2
2020-Jan-28 03:59 006 2.2
2020-Jan-28 03:49 006 2.8
2020-Jan-28 03:39 006 3.3
2020-Jan-28 03:29 006 3.3
2020-Jan-28 03:19 006 3.9
2020-Jan-28 03:09 015 3.9
2020-Jan-28 02:59 335 0 gusting 1 4.4
2020-Jan-28 02:49 332 0 gusting 2 4.4
2020-Jan-28 02:39 309 5.0
2020-Jan-28 02:29 342 0 gusting 7 5.0
2020-Jan-28 02:19 316 5.6
2020-Jan-28 02:09 046 5.6
2020-Jan-28 01:59 012 0 gusting 6 6.1
2020-Jan-28 01:49 219 0 gusting 6 6.1
2020-Jan-28 01:39 358 5 gusting 6 6.1
2020-Jan-28 01:29 267 2 gusting 5 6.7
2020-Jan-28 01:19 092 0 gusting 5 6.7
2020-Jan-28 01:09 316 5 gusting 5 6.7
2020-Jan-28 00:59 316 6.7
2020-Jan-28 00:49 319 6.7
2020-Jan-28 00:39 348 0 gusting 6 7.2
2020-Jan-28 00:29 305 2 gusting 4 7.2
2020-Jan-28 00:19 358 4 gusting 6 7.2
2020-Jan-28 00:09 290 7.2
2020-Jan-27 23:59 316 7.2
2020-Jan-27 23:49 283 0 gusting 3 7.2
2020-Jan-27 23:39 317 7.2
2020-Jan-27 23:29 146 7.2
2020-Jan-27 23:19 287 7.8
2020-Jan-27 23:09 325 3 gusting 5 7.8
2020-Jan-27 22:59 018 0 gusting 9 7.8
2020-Jan-27 22:49 356 0 gusting 6 7.8
2020-Jan-27 22:39 260 0 gusting 6 7.8
2020-Jan-27 22:29 030 3 gusting 7 8.3
2020-Jan-27 22:19 316 1 gusting 6 8.3
2020-Jan-27 22:09 356 1 gusting 8 8.3
2020-Jan-27 21:59 008 2 gusting 6 8.3
2020-Jan-27 21:49 302 0 gusting 4 8.3
2020-Jan-27 21:39 316 0 gusting 2 8.9
2020-Jan-27 21:29 153 8.9
2020-Jan-27 21:19 341 0 gusting 4 8.9
2020-Jan-27 21:09 325 1 gusting 3 8.9
2020-Jan-27 20:59 304 2 gusting 4 8.9
2020-Jan-27 20:49 260 1 gusting 3 8.9
2020-Jan-27 20:39 324 0 gusting 6 9.4
2020-Jan-27 20:29 307 0 gusting 3 9.4
2020-Jan-27 20:19 323 9.4
2020-Jan-27 20:09 082 9.4
2020-Jan-27 19:59 030 0 gusting 8 9.4
2020-Jan-27 19:49 345 1 gusting 5 9.4
2020-Jan-27 19:39 270 3 gusting 6 9.4
2020-Jan-27 19:29 320 6 gusting 6 9.4
2020-Jan-27 19:19 135 9.4
2020-Jan-27 19:09 260 0 gusting 2 9.4
2020-Jan-27 18:59 302 1 gusting 5 9.4
2020-Jan-27 18:49 309 1 gusting 2 9.4
2020-Jan-27 18:39 338 0 gusting 5 9.4
2020-Jan-27 18:29 283 9.4
2020-Jan-27 18:19 058 2 gusting 6 9.4
2020-Jan-27 18:09 307 1 gusting 6 8.9
2020-Jan-27 17:59 311 1 gusting 9 8.9
2020-Jan-27 17:49 336 3 gusting 9 8.9
2020-Jan-27 17:39 183 7 gusting 8 8.9
2020-Jan-27 17:29 264 2 gusting 11 8.9
2020-Jan-27 17:19 048 6 gusting 11 9.4
2020-Jan-27 17:09 046 1 gusting 6 10.0
2020-Jan-27 16:59 311 4 gusting 11 9.4
2020-Jan-27 16:49 332 3 gusting 9 9.4
2020-Jan-27 16:39 255 2 gusting 8 9.4
2020-Jan-27 16:29 266 1 gusting 7 9.4
2020-Jan-27 16:19 304 6 gusting 7 8.9
2020-Jan-27 16:09 001 1 gusting 6 8.9
2020-Jan-27 15:59 264 0 gusting 5 8.3
2020-Jan-27 15:49 288 3 gusting 6 7.8
2020-Jan-27 15:39 268 1 gusting 4 7.8
2020-Jan-27 15:29 285 0 gusting 6 7.8
2020-Jan-27 15:19 304 1 gusting 5 7.2
2020-Jan-27 15:09 250 2 gusting 5 7.2
2020-Jan-27 14:59 167 0 gusting 4 6.7
2020-Jan-27 14:49 274 1 gusting 2 6.1
2020-Jan-27 14:39 212 5.6
2020-Jan-27 14:29 260 0 gusting 2 5.0
2020-Jan-27 14:19 269 5.0
2020-Jan-27 14:09 212 1 gusting 3 4.4
2020-Jan-27 13:59 311 1 gusting 5 3.9
2020-Jan-27 13:49 280 2.8
2020-Jan-27 13:39 280 2.2
2020-Jan-27 13:29 203 1.7
2020-Jan-27 13:19 291 0 gusting 1 1.7
2020-Jan-27 13:09 217 0.6
2020-Jan-27 12:59 275 -0.0
2020-Jan-27 12:49 275 0 gusting 0 -0.0
2020-Jan-27 12:39 259 0 gusting 0 -0.6
2020-Jan-27 12:29 172 -0.6
2020-Jan-27 12:19 172 -0.6
2020-Jan-27 12:09 172 -0.6
2020-Jan-27 11:59 159 -0.6
2020-Jan-27 11:49 159 -0.6
2020-Jan-27 11:39 160 -1.1
2020-Jan-27 11:29 159 -1.1
2020-Jan-27 11:19 159 -1.1
2020-Jan-27 11:09 160 -1.1
2020-Jan-27 10:59 160 -1.1
2020-Jan-27 10:49 160 0 gusting 0 -1.1
2020-Jan-27 10:39 282 -1.1
2020-Jan-27 10:29 282 -0.6
2020-Jan-27 10:19 283 -0.6
2020-Jan-27 10:09 288 -0.6
2020-Jan-27 09:59 288 -0.6
2020-Jan-27 09:49 288 -0.6
2020-Jan-27 09:39 288 -0.6
2020-Jan-27 09:29 288 -0.6
2020-Jan-27 09:19 288 -0.6
2020-Jan-27 09:09 288 -0.6
2020-Jan-27 08:59 288 -0.6
2020-Jan-27 08:49 288 -0.6
2020-Jan-27 08:39 288 -0.0
2020-Jan-27 08:29 288 -0.0
2020-Jan-27 08:19 288 0.6
2020-Jan-27 08:09 288 0.6
2020-Jan-27 07:59 288 0.6
2020-Jan-27 07:49 288 0.6
2020-Jan-27 07:39 288 0.6
2020-Jan-27 07:29 288 0.6
2020-Jan-27 07:19 304 -0.0
2020-Jan-27 07:09 305 -0.0
2020-Jan-27 06:59 305 -0.0
2020-Jan-27 06:49 304 -0.0
2020-Jan-27 06:39 304 -0.0
2020-Jan-27 06:29 305 -0.6
2020-Jan-27 06:19 304 -0.0
2020-Jan-27 06:09 304 -0.0
2020-Jan-27 05:59 304 0.6
2020-Jan-27 05:49 305 0.6
2020-Jan-27 05:39 311 0.6
2020-Jan-27 05:29 310 1.1
2020-Jan-27 05:19 311 1.1
2020-Jan-27 05:09 310 1.7
2020-Jan-27 04:59 310 2.2
2020-Jan-27 04:49 311 2.2
2020-Jan-27 04:39 310 2.8
2020-Jan-27 04:29 310 3.3
2020-Jan-27 04:19 311 3.9
2020-Jan-27 04:09 311 5.0
2020-Jan-27 03:59 311 5.0
2020-Jan-27 03:49 332 5.6
2020-Jan-27 03:39 326 5.6
2020-Jan-27 03:29 356 0 gusting 4 5.6
2020-Jan-27 03:19 313 6.1
2020-Jan-27 03:09 335 1 gusting 4 6.1
2020-Jan-27 02:59 358 0 gusting 3 6.1
2020-Jan-27 02:49 345 6.1
2020-Jan-27 02:39 269 2 gusting 5 6.1
2020-Jan-27 02:29 352 1 gusting 5 6.1
2020-Jan-27 02:19 316 1 gusting 6 6.1
2020-Jan-27 02:09 314 5 gusting 6 6.7
2020-Jan-27 01:59 330 1 gusting 5 6.7
2020-Jan-27 01:49 302 0 gusting 6 6.7
2020-Jan-27 01:39 319 1 gusting 6 6.7
2020-Jan-27 01:29 252 2 gusting 5 6.7
2020-Jan-27 01:19 294 0 gusting 6 6.7
2020-Jan-27 01:09 319 2 gusting 2 6.7
2020-Jan-27 00:59 262 6.7
2020-Jan-27 00:49 344 6.7
2020-Jan-27 00:39 296 0 gusting 2 6.7
2020-Jan-27 00:29 285 0 gusting 0 6.7
2020-Jan-27 00:19 306 6.7
2020-Jan-27 00:09 307 6.7
2020-Jan-26 23:59 307 6.7
2020-Jan-26 23:49 306 6.7
2020-Jan-26 23:39 307 6.7
2020-Jan-26 23:29 307 7.2
2020-Jan-26 23:19 306 0 gusting 1 7.2
2020-Jan-26 23:09 338 7.2
2020-Jan-26 22:59 337 7.2
2020-Jan-26 22:49 012 0 gusting 1 7.2
2020-Jan-26 22:39 324 0 gusting 0 7.8
2020-Jan-26 22:29 338 7.8
2020-Jan-26 22:19 357 7.8
2020-Jan-26 22:09 337 0 gusting 2 7.8